• In Switzerland
  • List of Countries
  • For 7 days
  • Water Temperature
  • Satellite Maps
  • Weather Map
  • Weather Widgets
  • user-avatar
    Login

    Hourly Weather Kalemie

    Today, 21 September, Friday

    Time Temperature Precipitation Wind Pressure Humidity
    00:00 +24°C° 0 mm 1 mps 704 mmHg 81%
    01:00 +24°C° 0 mm 1 mps 704 mmHg 84%
    02:00 +23°C° 0 mm 1 mps 704 mmHg 88%
    03:00 +23°C° 0 mm 1 mps 704 mmHg 89%
    04:00 +23°C° 0 mm 1 mps 704 mmHg 91%
    05:00 +22°C° 0 mm 1 mps 704 mmHg 92%
    06:00 +23°C° 0.4 mm 1 mps 705 mmHg 90%
    07:00 +24°C° 0.4 mm 1 mps 705 mmHg 88%
    08:00 +26°C° 0.4 mm 1 mps 706 mmHg 85%
    09:00 +29°C° 0 mm 1 mps 706 mmHg 72%
    10:00 +33°C° 0 mm 1 mps 706 mmHg 59%
    11:00 +34°C° 0 mm 0 mps 707 mmHg 46%
    12:00 +36°C° 0 mm 1 mps 706 mmHg 45%
    13:00 +35°C° 0 mm 1 mps 705 mmHg 44%
    14:00 +35°C° 0 mm 1 mps 705 mmHg 43%
    15:00 +34°C° 0 mm 1 mps 704 mmHg 47%
    16:00 +33°C° 0 mm 1 mps 704 mmHg 50%
    17:00 +33°C° 0 mm 1 mps 704 mmHg 54%
    18:00 +31°C° 0 mm 1 mps 704 mmHg 57%
    19:00 +29°C° 0 mm 1 mps 704 mmHg 60%
    20:00 +28°C° 0 mm 1 mps 704 mmHg 64%
    21:00 +27°C° 0 mm 1 mps 704 mmHg 66%
    22:00 +26°C° 0 mm 1 mps 704 mmHg 68%
    23:00 +26°C° 0 mm 1 mps 704 mmHg 70%

    Tomorrow, 22 September, Saturday

    Time Temperature Precipitation Wind Pressure Humidity
    00:00 +25°C° 0 mm 1 mps 704 mmHg 73%
    01:00 +24°C° 0 mm 1 mps 704 mmHg 76%
    02:00 +24°C° 0 mm 1 mps 704 mmHg 79%
    03:00 +23°C° 0.4 mm 1 mps 704 mmHg 82%
    04:00 +23°C° 0.4 mm 1 mps 704 mmHg 85%
    05:00 +22°C° 0.4 mm 1 mps 704 mmHg 88%
    06:00 +23°C° 1.3 mm 1 mps 705 mmHg 88%
    07:00 +24°C° 1.3 mm 1 mps 705 mmHg 88%
    08:00 +25°C° 1.3 mm 1 mps 706 mmHg 88%
    09:00 +28°C° 0 mm 1 mps 706 mmHg 76%
    10:00 +31°C° 0 mm 1 mps 707 mmHg 64%
    11:00 +35°C° 0 mm 1 mps 707 mmHg 52%
    12:00 +35°C° 0 mm 1 mps 706 mmHg 48%
    13:00 +36°C° 0 mm 1 mps 705 mmHg 44%
    14:00 +37°C° 0 mm 1 mps 705 mmHg 41%
    15:00 +36°C° 0 mm 1 mps 704 mmHg 45%
    16:00 +35°C° 0 mm 1 mps 704 mmHg 49%
    17:00 +33°C° 0 mm 1 mps 703 mmHg 54%
    18:00 +31°C° 0 mm 1 mps 704 mmHg 57%
    19:00 +30°C° 0 mm 1 mps 704 mmHg 61%
    20:00 +28°C° 0 mm 1 mps 704 mmHg 64%
    21:00 +27°C° 0 mm 1 mps 704 mmHg 67%
    22:00 +27°C° 0 mm 1 mps 704 mmHg 69%
    23:00 +24°C° 0 mm 0 mps 704 mmHg 72%

    Day after tomorrow, 23 September, Sunday

    Time Temperature Precipitation Wind Pressure Humidity
    00:00 +25°C° 0.7 mm 1 mps 704 mmHg 77%
    01:00 +24°C° 0.7 mm 1 mps 704 mmHg 82%
    02:00 +24°C° 0.7 mm 1 mps 704 mmHg 87%
    03:00 +23°C° 0.2 mm 1 mps 704 mmHg 89%
    04:00 +23°C° 0.2 mm 1 mps 704 mmHg 90%
    05:00 +20°C° 0.2 mm 0 mps 704 mmHg 92%
    06:00 +24°C° 0 mm 1 mps 705 mmHg 88%
    07:00 +26°C° 0 mm 1 mps 705 mmHg 84%
    08:00 +27°C° 0 mm 1 mps 706 mmHg 80%
    09:00 +29°C° 0.2 mm 1 mps 706 mmHg 69%
    10:00 +32°C° 0.2 mm 2 mps 707 mmHg 58%
    11:00 +35°C° 0.2 mm 2 mps 707 mmHg 47%
    12:00 +36°C° 0 mm 2 mps 706 mmHg 44%
    13:00 +37°C° 0 mm 2 mps 705 mmHg 40%
    14:00 +38°C° 0 mm 2 mps 704 mmHg 36%
    15:00 +36°C° 0 mm 1 mps 704 mmHg 41%
    16:00 +35°C° 0 mm 1 mps 703 mmHg 45%
    17:00 +32°C° 0 mm 0 mps 703 mmHg 49%
    18:00 +30°C° 0 mm 0 mps 703 mmHg 52%
    19:00 +28°C° 0 mm 0 mps 704 mmHg 54%
    20:00 +27°C° 0 mm 0 mps 704 mmHg 56%
    21:00 +26°C° 0 mm 0 mps 704 mmHg 59%
    22:00 +25°C° 0 mm 0 mps 704 mmHg 61%
    23:00 +24°C° 0 mm 0 mps 704 mmHg 63%

    24 September, Monday

    Time Temperature Precipitation Wind Pressure Humidity
    00:00 +24°C° 0.1 mm 0 mps 704 mmHg 65%
    01:00 +24°C° 0.1 mm 0 mps 703 mmHg 66%
    02:00 +26°C° 0.1 mm 1 mps 703 mmHg 67%
    03:00 +25°C° 0 mm 1 mps 703 mmHg 73%
    04:00 +24°C° 0 mm 1 mps 704 mmHg 79%
    05:00 +23°C° 0 mm 1 mps 704 mmHg 85%
    06:00 +25°C° 0 mm 1 mps 704 mmHg 81%
    07:00 +26°C° 0 mm 1 mps 705 mmHg 76%
    08:00 +28°C° 0 mm 1 mps 706 mmHg 72%
    09:00 +31°C° 0.1 mm 1 mps 706 mmHg 62%
    10:00 +33°C° 0.1 mm 1 mps 706 mmHg 53%
    11:00 +36°C° 0.1 mm 1 mps 706 mmHg 43%
    12:00 +35°C° 0 mm 1 mps 705 mmHg 45%
    13:00 +35°C° 0 mm 1 mps 704 mmHg 46%
    14:00 +34°C° 0 mm 1 mps 703 mmHg 48%
    15:00 +33°C° 0 mm 1 mps 703 mmHg 52%
    16:00 +32°C° 0 mm 1 mps 703 mmHg 56%
    17:00 +31°C° 0 mm 2 mps 703 mmHg 60%
    18:00 +30°C° 0.1 mm 1 mps 703 mmHg 63%
    19:00 +29°C° 0.1 mm 1 mps 704 mmHg 66%
    20:00 +27°C° 0.1 mm 1 mps 704 mmHg 69%
    21:00 +26°C° 0.4 mm 2 mps 704 mmHg 76%
    22:00 +25°C° 0.4 mm 2 mps 704 mmHg 82%
    23:00 +24°C° 0.4 mm 3 mps 705 mmHg 88%

    25 September, Tuesday

    Time Temperature Precipitation Wind Pressure Humidity
    00:00 +24°C° 0.2 mm 2 mps 704 mmHg 90%
    01:00 +23°C° 0.2 mm 2 mps 704 mmHg 91%
    02:00 +23°C° 0.2 mm 2 mps 704 mmHg 93%
    03:00 +23°C° 0.4 mm 2 mps 704 mmHg 94%
    04:00 +22°C° 0.4 mm 1 mps 704 mmHg 95%
    05:00 +22°C° 0.4 mm 1 mps 704 mmHg 97%
    06:00 +23°C° 0 mm 1 mps 705 mmHg 94%
    07:00 +24°C° 0 mm 2 mps 706 mmHg 91%
    08:00 +25°C° 0 mm 2 mps 707 mmHg 88%
    09:00 +27°C° 0.1 mm 2 mps 707 mmHg 78%
    10:00 +29°C° 0.1 mm 2 mps 707 mmHg 68%
    11:00 +31°C° 0.1 mm 2 mps 707 mmHg 58%
    12:00 +31°C° 0.5 mm 2 mps 706 mmHg 58%
    13:00 +32°C° 0.5 mm 2 mps 705 mmHg 57%
    14:00 +32°C° 0.5 mm 1 mps 705 mmHg 57%
    15:00 +31°C° 0 mm 1 mps 704 mmHg 59%
    16:00 +31°C° 0 mm 1 mps 704 mmHg 62%
    17:00 +31°C° 0 mm 1 mps 704 mmHg 64%
    18:00 +29°C° 0 mm 1 mps 704 mmHg 69%
    19:00 +25°C° 0 mm 0 mps 704 mmHg 73%
    20:00 +23°C° 0 mm 0 mps 704 mmHg 78%
    21:00 +23°C° 0 mm 0 mps 704 mmHg 80%
    22:00 +24°C° 0 mm 1 mps 704 mmHg 82%
    23:00 +24°C° 0 mm 1 mps 704 mmHg 84%

    26 September, Wednesday

    Time Temperature Precipitation Wind Pressure Humidity
    00:00 +24°C° 0 mm 1 mps 704 mmHg 85%
    01:00 +23°C° 0 mm 1 mps 704 mmHg 86%
    02:00 +23°C° 0 mm 1 mps 704 mmHg 88%
    03:00 +23°C° 0.3 mm 1 mps 704 mmHg 90%
    04:00 +22°C° 0.3 mm 1 mps 704 mmHg 92%
    05:00 +20°C° 0.3 mm 0 mps 705 mmHg 94%
    06:00 +21°C° 0.3 mm 0 mps 706 mmHg 90%
    07:00 +23°C° 0.3 mm 0 mps 706 mmHg 87%
    08:00 +26°C° 0.3 mm 1 mps 707 mmHg 83%
    09:00 +28°C° 1 mm 1 mps 707 mmHg 75%
    10:00 +30°C° 1 mm 1 mps 707 mmHg 66%
    11:00 +32°C° 1 mm 1 mps 707 mmHg 58%
    12:00 +33°C° 0 mm 1 mps 706 mmHg 52%
    13:00 +34°C° 0 mm 1 mps 705 mmHg 46%
    14:00 +35°C° 0 mm 1 mps 704 mmHg 41%
    15:00 +35°C° 0 mm 1 mps 704 mmHg 45%
    16:00 +34°C° 0 mm 1 mps 704 mmHg 49%
    17:00 +33°C° 0 mm 1 mps 704 mmHg 53%
    18:00 +31°C° 0 mm 1 mps 704 mmHg 57%
    19:00 +29°C° 0 mm 1 mps 704 mmHg 62%
    20:00 +27°C° 0 mm 1 mps 704 mmHg 66%
    21:00 +26°C° 0 mm 1 mps 704 mmHg 68%
    22:00 +26°C° 0 mm 1 mps 704 mmHg 70%
    23:00 +25°C° 0 mm 1 mps 704 mmHg 73%
    Show more